Guthrie, OK

4:41 PM CDT on June 22, 2017 (GMT -0500)
Guthrie Municipal

Weather History for KGOK - March, 2013

Change the Weather History Date:

Saturday, March 9, 2013

  Actual Average Record
Temperature  
Mean Temperature 58 °F -  
Max Temperature 64 °F 64 °F 84 °F (2017)
Min Temperature 51 °F 38 °F 18 °F (1969)
Degree Days  
Heating Degree Days 6    
Growing Degree Days 8 (Base 50)    
Moisture  
Dew Point 55 °F    
Average Humidity 81    
Maximum Humidity 94    
Minimum Humidity 70    
Precipitation  
Precipitation 0.08 in - - ()
Sea Level Pressure  
Sea Level Pressure 29.72 in    
Wind  
Wind Speed 16 mph (SSE)    
Max Wind Speed 24 mph    
Max Gust Speed 34 mph    
Visibility 8 miles    
Events Rain , Thunderstorm    
Averages and records for this station are not official NWS values.
T = Trace of Precipitation, MM = Missing Value Source: NWS Daily Summary

Daily Weather History Graph

Daily Weather History Graph

Search for Another Location

Airport or City:

Trip Planner

Search our weather history database for the weather conditions in past years. The results will help you decide how hot, cold, wet, or windy it might be!

Date:

Astronomy

Mar. 09, 2013 Rise Set
Actual Time 6:48 AM CST 6:32 PM CST
Civil Twilight 6:22 AM CST 6:57 PM CST
Nautical Twilight 5:53 AM CST 7:27 PM CST
Astronomical Twilight 5:23 AM CST 7:57 PM CST
Moon 5:09 AM CST (3/9) 4:38 PM CST (3/9)
Length of Visible Light 12h 34m
Length of Day
11h 43m
Waning Crescent, 5% of the Moon is Illuminated
Mar 9
Waning Crescent
Mar 11
New
Mar 19
First Quarter
Mar 27
Full
Apr 2
Last Quarter

Hourly Weather History & Observations

Time (CST) Temp. Dew Point Humidity Pressure Visibility Wind Dir Wind Speed Gust Speed Precip Events Conditions
12:53 AM 61.0 °F 51.1 °F 70% 29.90 in 9.0 mi South 16.1 mph 25.3 mph N/A   Overcast
1:53 AM 62.1 °F 52.0 °F 70% 29.89 in 8.0 mi South 19.6 mph 24.2 mph N/A   Overcast
2:53 AM 62.1 °F 53.1 °F 72% 29.86 in 8.0 mi South 17.3 mph 23.0 mph N/A   Overcast
3:38 AM 60.8 °F 53.6 °F 77% 29.84 in 8.0 mi SSE 17.3 mph 28.8 mph N/A   Overcast
3:53 AM 61.0 °F 53.1 °F 75% 29.82 in 8.0 mi SSE 17.3 mph 24.2 mph N/A   Overcast
4:53 AM 61.0 °F 53.1 °F 75% 29.82 in 8.0 mi South 12.7 mph 24.2 mph N/A   Overcast
5:02 AM 60.8 °F 53.6 °F 77% 29.83 in 8.0 mi South 16.1 mph 21.9 mph N/A   Overcast
5:53 AM 60.1 °F 53.1 °F 78% 29.81 in 7.0 mi SSE 16.1 mph 23.0 mph N/A   Overcast
6:43 AM 59.0 °F 53.6 °F 82% 29.81 in 7.0 mi SSE 13.8 mph - 0.00 in Rain Light Rain
6:53 AM 59.0 °F 54.0 °F 83% 29.80 in 7.0 mi SSE 13.8 mph 21.9 mph 0.00 in   Overcast
7:29 AM 59.0 °F 53.6 °F 82% 29.80 in 6.0 mi SSE 16.1 mph 25.3 mph N/A   Haze
7:53 AM 59.0 °F 54.0 °F 83% 29.78 in 6.0 mi South 17.3 mph 29.9 mph 0.00 in   Haze
8:53 AM 61.0 °F 55.0 °F 81% 29.75 in 8.0 mi South 21.9 mph 32.2 mph 0.00 in   Overcast
9:53 AM 62.1 °F 55.0 °F 78% 29.73 in 10.0 mi South 24.2 mph 34.5 mph N/A   Overcast
10:16 AM 62.6 °F 55.4 °F 77% 29.73 in 10.0 mi South 21.9 mph 31.1 mph N/A   Overcast
10:26 AM 62.6 °F 55.4 °F 77% 29.73 in 10.0 mi South 19.6 mph 34.5 mph N/A   Overcast
10:53 AM 63.0 °F 55.0 °F 75% 29.72 in 10.0 mi South 17.3 mph 31.1 mph N/A   Overcast
11:53 AM 63.0 °F 55.9 °F 78% 29.70 in 10.0 mi South 21.9 mph 31.1 mph N/A   Overcast
12:06 PM 64.4 °F 55.4 °F 73% 29.71 in 10.0 mi South 21.9 mph 29.9 mph N/A   Overcast
12:29 PM 64.4 °F 55.4 °F 73% 29.70 in 9.0 mi South 17.3 mph 28.8 mph N/A   Overcast
12:53 PM 64.0 °F 57.0 °F 78% 29.68 in 9.0 mi South 23.0 mph 31.1 mph N/A   Overcast
1:53 PM 63.0 °F 57.0 °F 81% 29.65 in 10.0 mi South 18.4 mph 25.3 mph N/A   Overcast
2:00 PM 62.6 °F 57.2 °F 82% 29.66 in 9.0 mi South 13.8 mph 25.3 mph N/A   Overcast
2:53 PM 63.0 °F 57.9 °F 84% 29.64 in 5.0 mi South 13.8 mph 23.0 mph 0.00 in Rain Light Rain
3:01 PM 62.6 °F 57.2 °F 82% 29.63 in 1.8 mi SSE 13.8 mph 19.6 mph 0.03 in Rain Rain
3:11 PM 62.6 °F 59.0 °F 88% 29.64 in 2.0 mi South 15.0 mph 20.7 mph 0.05 in Rain , Thunderstorm Light Rain
3:31 PM 62.6 °F 60.8 °F 94% 29.64 in 4.0 mi South 9.2 mph - 0.06 in Rain , Thunderstorm Light Rain
3:33 PM 62.6 °F 60.8 °F 94% 29.64 in 4.0 mi South 9.2 mph - 0.06 in Rain Light Rain
3:53 PM 64.0 °F 60.1 °F 87% 29.63 in 6.0 mi South 10.4 mph - 0.07 in   Mostly Cloudy
4:00 PM 62.6 °F 60.8 °F 94% 29.64 in 6.0 mi South 9.2 mph - N/A   Overcast
4:53 PM 63.0 °F 59.0 °F 87% 29.62 in 3.0 mi SSE 9.2 mph - 0.01 in Rain Rain
5:53 PM 62.1 °F 57.0 °F 84% 29.61 in 9.0 mi SSE 6.9 mph - 0.00 in   Scattered Clouds
6:53 PM 60.1 °F 54.0 °F 80% 29.62 in 10.0 mi SSE 8.1 mph - N/A   Mostly Cloudy
7:53 PM 57.0 °F 52.0 °F 83% 29.65 in 10.0 mi South 9.2 mph - N/A   Mostly Cloudy
8:53 PM 54.0 °F 51.1 °F 90% 29.64 in 10.0 mi SSE 5.8 mph - N/A   Clear
9:53 PM 54.0 °F 51.1 °F 90% 29.67 in 8.0 mi South 5.8 mph - N/A   Partly Cloudy
10:53 PM 53.1 °F 48.9 °F 86% 29.67 in 9.0 mi SE 4.6 mph - N/A   Mostly Cloudy
11:53 PM 51.1 °F 46.9 °F 86% 29.68 in 10.0 mi South 9.2 mph - N/A   Scattered Clouds